Regional Weather Roundup
Issued by NWS

Home | Current Version | Previous Version | Graphics & Text | Print | Product List | Glossary On
Versions: 1 2 3 4 5 6 7 8 9 10 11 12 13 14 15 16 17 18 19 20 21 22 23 24 25 26 27 28 29 30 31 32 33 34 35 36 37 38 39 40 41 42 43 44 45 46 47 48 49 50
000
ASUS45 KPSR 040710
RWRAZ

ARIZONA REGIONAL HOURLY WEATHER ROUNDUP
NATIONAL WEATHER SERVICE PHOENIX AZ
1200 AM MST MON MAY 04 2015

NOTE: FAIR INDICATES FEW OR NO CLOUDS BELOW 12,000 FEET WITH NO
SIGNIFICANT WEATHER AND/OR OBSTRUCTIONS TO VISIBILITY.

AZZ001>003-036-040800-
NORTHWEST ARIZONA

CITY           SKY/WX    TMP DP  RH WIND       PRES   REMARKS
BULLHEAD CITY  CLEAR     82  39  21 S17       29.73R
KINGMAN        MOCLDY    66  36  32 SE10      29.88S
$$

AZZ004>008-015-016-018-040800-
NORTH CENTRAL ARIZONA

CITY           SKY/WX    TMP DP  RH WIND       PRES   REMARKS
GRAND CANYON   PTCLDY    36  34  92 CALM      30.06F
WILLIAMS       CLEAR     45  36  70 S9        30.13S
PRESCOTT       CLEAR     55  37  50 S6        29.98S
FLAGSTAFF      CLEAR     39  34  82 CALM      30.09S
PAYSON         CLOUDY    63  39  42 SW13G22   30.02R
PAGE           PTCLDY    62  39  42 S3        29.95S
$$

AZZ009>014-017-040800-
NORTHEAST ARIZONA

CITY           SKY/WX    TMP DP  RH WIND       PRES   REMARKS
WINSLOW        PTCLDY    52  40  63 SW8       30.00F
SAINT JOHNS    CLOUDY    56  39  53 NW8       30.04R
WINDOW ROCK    CLOUDY    52  39  61 E3        30.10R
SHOW LOW       PTCLDY    46  37  71 CALM      30.08S
$$

AZZ023-040800-
GREATER PHOENIX AREA

CITY           SKY/WX    TMP DP  RH WIND       PRES   REMARKS
PHOENIX        MOCLDY    80  51  36 W8        29.78R
LUKE AFB       PTCLDY    77  52  41 S17       29.76R
DEER VALLEY    PTCLDY    77  49  37 S6        29.80R
SCOTTSDALE     MOCLDY    78  50  37 W10       29.83R
MESA-GATEWAY   MOCLDY    75  46  35 CALM      29.83R
$$

AZZ027-028-040800-
SOUTHWEST MARICOPA COUNTY AND PINAL COUNTY

CITY           SKY/WX    TMP DP  RH WIND       PRES   REMARKS
CASA GRANDE    MOCLDY    75  48  38 W7        29.81R THUNDER
GILA BEND      FAIR      75  48  38 SW3       29.79S
$$

AZZ503-504-507>509-040800-
SOUTHEAST ARIZONA

CITY           SKY/WX    TMP DP  RH WIND       PRES   REMARKS
TUCSON         MOCLDY    73  51  46 NW3       29.90R
DAVIS-MONTHAN  PTCLDY    71  52  51 NW8       29.88R
NOGALES        PTCLDY    65  44  46 E7        29.96F
SIERRA VISTA   CLOUDY    66  38  35 SW17G23   29.98S
DOUGLAS        MOCLDY    62  39  42 CALM      29.95S
SAFFORD        PTCLDY    72  36  26 N8        29.84R
$$

AZZ020-021-025-026-031-040800-
SOUTHWEST ARIZONA

CITY           SKY/WX    TMP DP  RH WIND       PRES   REMARKS
YUMA           CLEAR     75  54  47 SE13      29.76S
$$

CAZ031-033-041-043-047-048-061-040800-
SOUTHERN CALIFORNIA

CITY           SKY/WX    TMP DP  RH WIND       PRES   REMARKS
DOWNTOWN L.A.  CLEAR     58  51  78 SE6       29.91R
L.A. AIRPORT   CLEAR     56  52  86 SW7       29.91R
SAN DIEGO      MOCLDY    63  52  67 SW5       29.95S
BURBANK        CLEAR     59  48  67 SE8       29.90R
ONTARIO        CLEAR     56  47  71 W7        29.92R
RIVERSIDE      CLEAR     58  48  69 W3        29.93R
PALM SPRINGS   CLEAR     76  47  35 NW15      29.78S
EL CENTRO NAS  CLEAR     73  50  44 SW5       29.75R
IMPERIAL       CLEAR     72  57  59 SE5       29.73S
BLYTHE         CLEAR     79  53  40 SW13      29.75R
NEEDLES        PTCLDY    82  40  22 W14       29.73S
$$

NVZ020-UTZ003-040800-
SOUTHERN NEVADA-UTAH

CITY           SKY/WX    TMP DP  RH WIND       PRES   REMARKS
LAS VEGAS      PTCLDY    75  25  15 S8        29.73S
SALT LAKE CITY CLOUDY    65  42  43 E8        29.94R
$$

NMZ009-TXZ055-040800-
NEW MEXICO-WEST TEXAS

CITY           SKY/WX    TMP DP  RH WIND       PRES   REMARKS
ALBUQUERQUE    MOCLDY    61  37  41 SW8       30.02R
EL PASO        MOCLDY    70  48  45 CALM      29.93R
$$


........................KEY........................
SKY/WX - SKY CONDITION/WEATHER
TMP    - TEMPERATURE IN FAHRENHEIT
DP     - DEW POINT IN FAHRENHEIT
RH     - RELATIVE HUMIDITY IN PERCENT
WIND   - DIRECTION AND SPEED IN MILES PER HOUR (MPH)
VRB    - VARIABLE WIND DIRECTION
PRES   - MEAN SEA LEVEL PRESSURE IN INCHES OF MERCURY
         F - FALLING PRESSURE   R - RISING PRESSURE
         S - STEADY PRESSURE
VSB    - VISIBILITY IN MILES
HX     - HEAT INDEX IN FAHRENHEIT
WCI    - WIND CHILL INDEX IN FAHRENHEIT
TC     - TEMPERATURE IN CELSIUS WHICH IS ALSO KNOWN AS
         TEMPERATURE IN CENTIGRADE
AFB    - AIR FORCE BASE
         LUKE AFB IS LUKE AIR FORCE BASE
         DAVIS-MONTHAN IS DAVIS-MONTHAN AIR FORCE BASE
NAS    - NAVAL AIR STATION
         EL CENTRO NAS IS EL CENTRO NAVAL AIR STATION
N/A    - NOT AVAILABLE




USA.gov is the U.S. government's official web portal to all federal, state and local government web resources and services.